N4XWC Weather Reports


Display with metric or nautical units.
time (UTC)temp
F
wind
direction
speed
MPH
gust
MPH
rain 1hr
in
rain 24hr
in
rain mn
in
humidity
%
barometer
mb
20260504120213 52 212 1.0 1.0 0.00 0.00 0.00 79 1017.3
20260504110444 51 179 0.0 1.0 0.00 0.00 0.00 82 1016.7
20260504110213 50 219 0.0 1.0 0.00 0.00 0.00 82 1016.7
20260504100443 49 198 0.0 1.0 0.00 0.00 0.00 89 1017.0
20260504100214 49 215 0.0 0.0 0.00 0.00 0.00 89 1017.0
20260504081945 54 243 1.0 1.0 0.00 0.00 0.00 70 1016.4
20260504081444 55 247 0.0 1.0 0.00 0.00 0.00 68 1016.5
20260504081216 55 234 0.0 1.0 0.00 0.00 0.00 68 1016.5
20260504080943 55 239 1.0 2.0 0.00 0.00 0.00 66 1016.5
20260504080443 55 217 1.0 1.0 0.00 0.00 0.00 65 1016.5
20260504080215 56 247 0.0 2.0 0.00 0.00 0.00 65 1016.5
20260504070214 55 223 2.0 3.0 0.00 0.00 0.00 66 1016.9
20260504060213 58 169 1.0 2.0 0.00 0.00 0.00 58 1017.4
20260504050443 58 244 0.0 2.0 0.00 0.00 0.00 60 1018.0
20260504050213 58 248 0.0 2.0 0.00 0.00 0.00 60 1018.0
20260504045943 58 239 0.0 2.0 0.00 0.00 0.00 61 1018.0
20260504045443 58 244 1.0 3.0 0.00 0.00 0.00 62 1018.0
20260504045215 58 237 1.0 2.0 0.00 0.00 0.00 62 1018.0
20260504044944 58 241 2.0 3.0 0.00 0.00 0.00 62 1018.0
20260504044444 58 248 2.0 2.0 0.00 0.00 0.00 61 1018.0
20260504044215 58 246 0.0 2.0 0.00 0.00 0.00 60 1018.0
20260504043944 58 232 0.0 1.0 0.00 0.00 0.00 60 1018.0
20260504043444 58 208 0.0 0.0 0.00 0.00 0.00 60 1018.0
20260504043215 58 208 0.0 0.0 0.00 0.00 0.00 59 1018.0
20260504042944 59 208 0.0 0.0 0.00 0.00 0.00 58 1018.0
20260504042443 59 215 1.0 1.0 0.00 0.00 0.00 58 1018.0
20260504042215 59 226 0.0 0.0 0.00 0.00 0.00 58 1018.0
20260504041944 59 226 0.0 0.0 0.00 0.00 0.00 58 1018.0
20260504041444 60 229 0.0 0.0 0.00 0.00 0.00 57 1018.1
20260504041216 60 224 0.0 1.0 0.00 0.00 0.00 57 1018.1
20260504040944 60 224 0.0 0.0 0.00 0.00 0.00 57 1018.1
20260504040443 60 253 0.0 1.0 0.00 0.00 0.00 55 1018.1
20260504040213 60 253 0.0 1.0 0.00 0.00 0.00 55 1018.1
20260504035944 60 258 1.0 2.0 0.00 0.00 0.00 55 1018.1
20260504035444 60 271 2.0 2.0 0.00 0.00 0.00 55 1018.1
20260504035215 60 256 1.0 2.0 0.00 0.00 0.00 54 1018.1
20260504034944 61 254 1.0 3.0 0.00 0.00 0.00 54 1018.1
20260504034443 61 256 2.0 2.0 0.00 0.00 0.00 54 1018.2
20260504034214 61 261 1.0 2.0 0.00 0.00 0.00 54 1018.2
20260504033944 61 282 1.0 3.0 0.00 0.00 0.00 54 1018.2
20260504033444 61 261 2.0 3.0 0.00 0.00 0.00 53 1018.2
20260504033215 61 272 3.0 3.0 0.00 0.00 0.00 53 1018.2
20260504032943 61 270 2.0 3.0 0.00 0.00 0.00 53 1018.5
20260504032444 61 271 3.0 3.0 0.00 0.00 0.00 53 1018.5
20260504032214 61 284 1.0 4.0 0.00 0.00 0.00 53 1018.5
20260504031945 61 299 1.0 3.0 0.00 0.00 0.00 53 1018.5
20260504031443 61 284 3.0 3.0 0.00 0.00 0.00 52 1018.5
20260504031215 61 291 3.0 5.0 0.00 0.00 0.00 52 1018.5
20260504030943 61 250 2.0 4.0 0.00 0.00 0.00 52 1018.5
20260504030444 61 264 3.0 3.0 0.00 0.00 0.00 51 1018.5
20260504030213 61 263 0.0 3.0 0.00 0.00 0.00 51 1018.5
20260504025944 61 278 1.0 4.0 0.00 0.00 0.00 51 1018.5
20260504025444 61 260 1.0 5.0 0.00 0.00 0.00 50 1018.5
20260504025215 61 261 1.0 4.0 0.00 0.00 0.00 50 1018.5
20260504024944 61 294 2.0 7.0 0.00 0.00 0.00 50 1018.5
20260504024443 61 313 2.0 3.0 0.00 0.00 0.00 50 1018.2
20260504024215 61 274 3.0 5.0 0.00 0.00 0.00 50 1018.2
20260504023943 61 265 2.0 3.0 0.00 0.00 0.00 50 1018.2
20260504023445 61 298 1.0 3.0 0.00 0.00 0.00 50 1018.2
20260504023214 61 272 2.0 4.0 0.00 0.00 0.00 50 1018.2
20260504022944 61 256 2.0 4.0 0.00 0.00 0.00 50 1018.0
20260504022444 61 264 2.0 5.0 0.00 0.00 0.00 50 1018.0
20260504022214 61 248 1.0 4.0 0.00 0.00 0.00 50 1018.0
20260504021943 61 277 3.0 3.0 0.00 0.00 0.00 50 1018.0
20260504021445 61 270 2.0 4.0 0.00 0.00 0.00 50 1018.0
20260504021215 61 272 1.0 3.0 0.00 0.00 0.00 50 1018.0
20260504020944 61 275 1.0 4.0 0.00 0.00 0.00 50 1018.0
20260504020444 61 282 1.0 3.0 0.00 0.00 0.00 50 1018.0
20260504020214 61 325 1.0 3.0 0.00 0.00 0.00 50 1018.0
20260504020007 61 271 2.0 5.0 0.00 0.00 0.00 50 1018.0
20260504015508 61 254 2.0 2.0 0.00 0.00 0.00 51 1017.9
20260504015214 61 272 2.0 3.0 0.00 0.00 0.00 50 1017.9
20260504015008 61 275 2.0 3.0 0.00 0.00 0.00 50 1017.9
20260504014508 61 281 1.0 3.0 0.00 0.00 0.00 50 1017.9
20260504014214 61 278 2.0 4.0 0.00 0.00 0.00 50 1017.7
20260504014008 61 280 2.0 3.0 0.00 0.00 0.00 51 1017.7
20260504013507 61 281 2.0 3.0 0.00 0.00 0.00 51 1017.7
20260504013214 61 281 3.0 3.0 0.00 0.00 0.00 50 1017.7
20260504013008 61 256 1.0 3.0 0.00 0.00 0.00 50 1017.7
20260504012508 61 251 0.0 3.0 0.00 0.00 0.00 51 1017.6
20260504012214 61 251 2.0 2.0 0.00 0.00 0.00 51 1017.6
20260504012007 61 264 1.0 3.0 0.00 0.00 0.00 51 1017.6
20260504011508 61 268 1.0 2.0 0.00 0.00 0.00 51 1017.6
20260504011214 61 263 1.0 2.0 0.00 0.00 0.00 51 1017.8
20260504011008 61 251 2.0 2.0 0.00 0.00 0.00 51 1017.8
20260504010508 61 258 1.0 1.0 0.00 0.00 0.00 51 1017.8
20260504010213 61 253 0.0 2.0 0.00 0.00 0.00 51 1017.8
20260504010008 61 257 2.0 2.0 0.00 0.00 0.00 51 1017.8
20260504005508 61 264 2.0 2.0 0.00 0.00 0.00 51 1017.7
20260504005216 62 267 1.0 2.0 0.00 0.00 0.00 51 1017.7
20260504005008 62 267 2.0 2.0 0.00 0.00 0.00 51 1017.7
20260504004509 62 265 1.0 2.0 0.00 0.00 0.00 50 1017.7
20260504004214 62 268 1.0 2.0 0.00 0.00 0.00 50 1017.5
20260504004008 62 289 1.0 2.0 0.00 0.00 0.00 50 1017.5
20260504003508 62 256 1.0 2.0 0.00 0.00 0.00 50 1017.5
20260504003215 62 263 1.0 2.0 0.00 0.00 0.00 49 1017.5
20260504003008 62 278 1.0 2.0 0.00 0.00 0.00 49 1017.5
20260504002509 63 285 1.0 2.0 0.00 0.00 0.00 49 1017.4
20260504002215 63 288 2.0 2.0 0.00 0.00 0.00 49 1017.4
20260504002008 63 294 0.0 1.0 0.00 0.00 0.00 49 1017.4
20260504001507 63 284 1.0 2.0 0.00 0.00 0.00 49 1017.4
20260504001248 64 298 1.0 1.0 0.00 0.00 0.00 49 1017.6
20260504001214 64 298 1.0 1.0 0.00 0.00 0.00 49 1017.6
20260504001008 64 291 0.0 2.0 0.00 0.00 0.00 48 1017.6
20260504000508 64 282 0.0 1.0 0.00 0.00 0.00 47 1017.6
20260504000215 64 265 2.0 2.0 0.00 0.00 0.00 47 1017.6
20260504000008 64 263 2.0 2.0 0.00 0.00 0.00 48 1017.6
20260503235507 65 281 0.0 1.0 0.00 0.00 0.00 48 1017.6
20260503235214 65 288 0.0 1.0 0.00 0.00 0.00 46 1017.6
20260503235008 65 288 2.0 2.0 0.00 0.00 0.00 47 1017.6
20260503234507 65 281 1.0 2.0 0.00 0.00 0.00 46 1017.6
20260503234215 65 289 1.0 1.0 0.00 0.00 0.00 46 1017.6
20260503234009 65 289 0.0 1.0 0.00 0.00 0.00 46 1017.6
20260503233508 66 282 2.0 3.0 0.00 0.00 0.00 45 1017.6
20260503233214 66 295 0.0 1.0 0.00 0.00 0.00 45 1017.6
20260503233008 66 298 1.0 5.0 0.00 0.00 0.00 45 1017.6
20260503232510 66 264 0.0 1.0 0.00 0.00 0.00 43 1017.6
20260503232214 66 311 3.0 3.0 0.00 0.00 0.00 43 1017.6
20260503232008 66 305 2.0 5.0 0.00 0.00 0.00 44 1017.6
20260503231508 66 292 1.0 5.0 0.00 0.00 0.00 42 1017.6
20260503231214 66 302 3.0 3.0 0.00 0.00 0.00 43 1017.5
20260503231007 66 319 1.0 3.0 0.00 0.00 0.00 43 1017.5
20260503230509 66 308 1.0 1.0 0.00 0.00 0.00 43 1017.5
20260503230214 67 309 4.0 4.0 0.00 0.00 0.00 43 1017.5
20260503230009 67 272 1.0 3.0 0.00 0.00 0.00 43 1017.5
20260503225508 67 282 1.0 3.0 0.00 0.00 0.00 42 1017.6
20260503225215 67 294 0.0 1.0 0.00 0.00 0.00 41 1017.6
20260503225007 67 284 3.0 4.0 0.00 0.00 0.00 42 1017.6
20260503224508 67 291 2.0 4.0 0.00 0.00 0.00 42 1017.6
20260503224214 67 229 1.0 3.0 0.00 0.00 0.00 44 1017.7
20260503224007 67 0 2.0 2.0 0.00 0.00 0.00 42 1017.7
20260503223508 67 318 0.0 1.0 0.00 0.00 0.00 41 1017.7
20260503223214 67 280 0.0 0.0 0.00 0.00 0.00 41 1017.7
20260503223008 67 278 0.0 2.0 0.00 0.00 0.00 41 1017.7
20260503222509 67 320 2.0 2.0 0.00 0.00 0.00 42 1017.9
20260503222214 67 335 1.0 4.0 0.00 0.00 0.00 42 1017.9
20260503222009 67 329 1.0 3.0 0.00 0.00 0.00 41 1017.9
20260503221509 67 330 3.0 3.0 0.00 0.00 0.00 40 1017.9
20260503221217 67 20 4.0 5.0 0.00 0.00 0.00 40 1017.9
20260503221008 67 6 4.0 4.0 0.00 0.00 0.00 42 1017.9
20260503220508 67 312 1.0 3.0 0.00 0.00 0.00 42 1017.9
20260503220215 67 313 4.0 6.0 0.00 0.00 0.00 44 1017.9
20260503220009 67 350 3.0 7.0 0.00 0.00 0.00 43 1017.9
20260503215509 67 295 0.0 3.0 0.00 0.00 0.00 40 1018.1
20260503215214 67 27 2.0 7.0 0.00 0.00 0.00 40 1018.1
20260503215008 67 313 0.0 3.0 0.00 0.00 0.00 41 1018.1
20260503214508 67 281 0.0 1.0 0.00 0.00 0.00 41 1018.1
20260503214215 68 0 3.0 6.0 0.00 0.00 0.00 41 1018.2
20260503214009 68 260 6.0 7.0 0.00 0.00 0.00 41 1018.2
20260503213509 68 285 1.0 4.0 0.00 0.00 0.00 44 1018.2
20260503213214 68 0 1.0 2.0 0.00 0.00 0.00 40 1018.2
20260503213008 68 6 4.0 6.0 0.00 0.00 0.00 41 1018.2
20260503212508 68 326 1.0 1.0 0.00 0.00 0.00 41 1018.3
20260503212214 68 342 1.0 3.0 0.00 0.00 0.00 40 1018.3
20260503212009 68 315 5.0 5.0 0.00 0.00 0.00 40 1018.3
20260503211508 68 326 5.0 6.0 0.00 0.00 0.00 39 1018.3
20260503211214 68 287 4.0 4.0 0.00 0.00 0.00 41 1018.4
20260503211007 68 257 6.0 7.0 0.00 0.00 0.00 41 1018.4
20260503210508 68 241 5.0 9.0 0.00 0.00 0.00 40 1018.4
20260503210215 68 11 0.0 2.0 0.00 0.00 0.00 43 1018.4
20260503210009 68 4 1.0 1.0 0.00 0.00 0.00 41 1018.4
20260503205507 68 291 2.0 6.0 0.00 0.00 0.00 41 1018.7
20260503205214 69 299 2.0 10.0 0.00 0.00 0.00 39 1018.7
20260503205010 69 298 1.0 5.0 0.00 0.00 0.00 39 1018.7
20260503204509 69 315 0.0 2.0 0.00 0.00 0.00 39 1018.7
20260503204214 69 263 2.0 4.0 0.00 0.00 0.00 40 1019.0
20260503204007 69 335 1.0 6.0 0.00 0.00 0.00 39 1019.0
20260503203508 69 275 2.0 5.0 0.00 0.00 0.00 42 1019.0
20260503203215 69 265 4.0 9.0 0.00 0.00 0.00 39 1019.0
20260503203008 69 350 3.0 7.0 0.00 0.00 0.00 39 1019.0
20260503202508 69 275 3.0 6.0 0.00 0.00 0.00 39 1019.1
20260503202214 69 311 3.0 4.0 0.00 0.00 0.00 38 1019.1
20260503202007 69 256 2.0 5.0 0.00 0.00 0.00 41 1019.1
20260503201508 69 323 2.0 3.0 0.00 0.00 0.00 41 1019.1
20260503201215 69 246 2.0 6.0 0.00 0.00 0.00 40 1019.5
20260503201009 69 304 4.0 4.0 0.00 0.00 0.00 40 1019.5
20260503200508 68 333 1.0 3.0 0.00 0.00 0.00 38 1019.5
20260503200213 68 319 0.0 3.0 0.00 0.00 0.00 38 1019.5
20260503200007 68 339 3.0 7.0 0.00 0.00 0.00 39 1019.5
20260503195511 68 302 9.0 9.0 0.00 0.00 0.00 38 1019.9
20260503195215 68 318 9.0 10.0 0.00 0.00 0.00 38 1019.9
20260503195008 68 267 4.0 5.0 0.00 0.00 0.00 37 1019.9
20260503194507 68 275 3.0 5.0 0.00 0.00 0.00 39 1019.9
20260503194214 68 306 6.0 10.0 0.00 0.00 0.00 40 1020.1
20260503194008 68 294 5.0 14.0 0.00 0.00 0.00 38 1020.1
20260503193509 68 313 7.0 7.0 0.00 0.00 0.00 38 1020.1
20260503193213 68 0 6.0 9.0 0.00 0.00 0.00 38 1020.1
20260503193009 68 332 7.0 7.0 0.00 0.00 0.00 41 1020.1
20260503192508 68 357 11.0 14.0 0.00 0.00 0.00 39 1020.3
20260503192214 68 0 2.0 3.0 0.00 0.00 0.00 44 1020.3
20260503192008 67 359 1.0 6.0 0.00 0.00 0.00 44 1020.3
20260503191509 67 289 2.0 3.0 0.00 0.00 0.00 42 1020.3
20260503191214 67 285 5.0 6.0 0.00 0.00 0.00 42 1020.5
20260503191008 67 222 1.0 1.0 0.00 0.00 0.00 45 1020.5
20260503190507 67 160 1.0 1.0 0.00 0.00 0.00 41 1020.5
20260503190215 67 291 7.0 10.0 0.00 0.00 0.00 42 1020.5
20260503190008 67 311 2.0 10.0 0.00 0.00 0.00 43 1020.5
20260503185508 67 275 3.0 5.0 0.00 0.00 0.00 40 1020.8
20260503185213 67 289 1.0 3.0 0.00 0.00 0.00 41 1020.8
20260503185007 67 322 0.0 2.0 0.00 0.00 0.00 42 1020.8
20260503184507 67 38 1.0 2.0 0.00 0.00 0.00 44 1020.8
20260503184214 67 326 0.0 4.0 0.00 0.00 0.00 42 1021.0
20260503184009 67 0 5.0 10.0 0.00 0.00 0.00 43 1021.0
20260503183509 67 305 1.0 3.0 0.00 0.00 0.00 41 1021.0
20260503183214 67 11 11.0 12.0 0.00 0.00 0.00 45 1021.0
20260503183007 67 241 4.0 5.0 0.00 0.00 0.00 42 1021.0
20260503182507 67 328 2.0 6.0 0.00 0.00 0.00 43 1021.2
20260503182214 67 298 2.0 7.0 0.00 0.00 0.00 43 1021.2
20260503182009 66 304 3.0 7.0 0.00 0.00 0.00 43 1021.2
20260503181509 66 315 4.0 9.0 0.00 0.00 0.00 42 1021.2
20260503181214 66 25 1.0 5.0 0.00 0.00 0.00 41 1021.3
20260503181008 66 251 0.0 3.0 0.00 0.00 0.00 44 1021.3
20260503180508 66 304 1.0 3.0 0.00 0.00 0.00 43 1021.3
20260503180214 66 17 5.0 5.0 0.00 0.00 0.00 45 1021.3
20260503180008 66 332 3.0 5.0 0.00 0.00 0.00 47 1021.3
20260503175509 65 325 1.0 4.0 0.00 0.00 0.00 48 1021.3
20260503175213 65 3 5.0 5.0 0.00 0.00 0.00 47 1021.3
20260503175007 65 296 0.0 5.0 0.00 0.00 0.00 48 1021.3
20260503174509 65 320 4.0 4.0 0.00 0.00 0.00 47 1021.3
20260503174214 64 54 1.0 1.0 0.00 0.00 0.00 47 1021.6
20260503174008 64 1 3.0 3.0 0.00 0.00 0.00 48 1021.6
20260503173508 64 272 0.0 2.0 0.00 0.00 0.00 50 1021.6
20260503173214 64 357 5.0 5.0 0.00 0.00 0.00 52 1021.6
20260503173007 64 282 3.0 7.0 0.00 0.00 0.00 48 1021.6
20260503172508 64 0 4.0 6.0 0.00 0.00 0.00 50 1021.8
20260503172213 64 340 3.0 3.0 0.00 0.00 0.00 49 1021.8
20260503172009 64 304 1.0 5.0 0.00 0.00 0.00 48 1021.8
20260503171507 64 287 3.0 6.0 0.00 0.00 0.00 47 1021.8
20260503171215 64 309 2.0 10.0 0.00 0.00 0.00 47 1022.1
20260503171008 64 288 3.0 3.0 0.00 0.00 0.00 52 1022.1
20260503170509 63 193 0.0 0.0 0.00 0.00 0.00 52 1022.1
20260503170215 63 213 0.0 3.0 0.00 0.00 0.00 48 1022.1
20260503160213 61 10 5.0 5.0 0.00 0.00 0.00 52 1022.4
20260503151007 60 30 2.0 4.0 0.00 0.00 0.00 55 1022.4
20260503150507 60 337 4.0 4.0 0.00 0.00 0.00 57 1022.4
20260503150214 60 103 1.0 2.0 0.00 0.00 0.00 58 1022.4
20260503140214 56 47 2.0 4.0 0.00 0.00 0.00 73 1022.3
20260503131217 52 359 0.0 3.0 0.00 0.00 0.00 83 1022.1
20260503131008 52 56 0.0 1.0 0.00 0.00 0.00 84 1022.1
20260503130509 52 347 0.0 1.0 0.00 0.00 0.00 86 1022.1
20260503130213 51 0 1.0 2.0 0.00 0.00 0.00 87 1022.1